Location: Cabeza de los Veneras
(40.2000°N, 5.2000°W)
Time: 11:00:06
(UTC+00:00)

BlueWalker 3 - Pass Details

Date: 27 June 2024
Orbit: 480 x 491 km, 53.2° (Epoch: 22 July)

Event Time Altitude Azimuth Distance (km) Brightness Sun altitude
Rises 22:49:30 0° 315° (NW) 2,541 6.7 -22.8°
Reaches altitude 10° 22:52:21 10° 338° (NNW) 1,659 5.7 -23.0°
Maximum altitude 22:54:43 16° 18° (NNE) 1,336 4.7 -23.2°
Drops below altitude 10° 22:57:04 10° 57° (ENE) 1,655 4.7 -23.4°
Enters shadow 22:57:37 - 63° (ENE) 1,800 4.8 -23.4°
